TimeCST,TemperatureF,Dew PointF,Humidity,Sea Level PressureIn,VisibilityMPH,Wind Direction,Wind SpeedMPH,Gust SpeedMPH,PrecipitationIn,Events,Conditions,WindDirDegrees,DateUTC
12:15 AM,48.0,35.1,61,30.31,10.0,NNE,4.6,-,N/A,Rain,Light Rain,20,2013-12-28 06:15:00
12:35 AM,48.2,35.2,61,30.31,10.0,NNE,4.6,-,N/A,,Light Drizzle,20,2013-12-28 06:35:00
12:55 AM,48.2,34.9,60,30.30,10.0,NNE,3.5,-,N/A,,Unknown,20,2013-12-28 06:55:00
1:15 AM,48.2,35.6,62,30.30,10.0,NE,3.5,-,N/A,Rain,Light Rain,40,2013-12-28 07:15:00
1:35 AM,47.3,37.9,70,30.29,10.0,Calm,Calm,-,N/A,,Unknown,0,2013-12-28 07:35:00
1:55 AM,46.8,37.8,71,30.29,10.0,Calm,Calm,-,N/A,Rain,Light Rain,0,2013-12-28 07:55:00
2:15 AM,46.6,38.5,73,30.27,10.0,North,4.6,-,N/A,Rain,Light Rain,10,2013-12-28 08:15:00
2:35 AM,46.0,38.8,76,30.27,10.0,North,4.6,-,N/A,Rain,Light Rain,350,2013-12-28 08:35:00
2:55 AM,46.0,38.3,74,30.25,10.0,NNE,3.5,-,N/A,Rain,Light Rain,30,2013-12-28 08:55:00
3:15 AM,46.0,39.4,78,30.26,10.0,North,3.5,-,N/A,,Light Drizzle,350,2013-12-28 09:15:00
3:35 AM,45.9,40.3,81,30.25,10.0,NNE,3.5,-,N/A,Rain,Rain,20,2013-12-28 09:35:00
3:55 AM,45.7,40.5,82,30.24,10.0,North,4.6,-,N/A,,Unknown,360,2013-12-28 09:55:00
4:15 AM,45.9,40.1,80,30.26,10.0,Calm,Calm,-,N/A,,Drizzle,0,2013-12-28 10:15:00
4:35 AM,45.7,40.3,81,30.24,10.0,NE,3.5,-,0.01,Rain,Light Rain,40,2013-12-28 10:35:00
4:55 AM,45.5,40.5,83,30.23,10.0,ENE,4.6,-,0.02,Rain,Rain,60,2013-12-28 10:55:00
5:15 AM,45.3,40.3,83,30.21,10.0,NE,4.6,-,N/A,,Light Drizzle,50,2013-12-28 11:15:00
5:35 AM,45.1,40.3,83,30.22,10.0,Calm,Calm,-,N/A,Rain,Light Rain,0,2013-12-28 11:35:00
5:55 AM,45.5,41.2,85,30.23,10.0,Calm,Calm,-,0.02,Rain,Light Rain,0,2013-12-28 11:55:00
6:15 AM,45.0,41.2,87,30.21,7.0,NNE,3.5,-,0.02,Rain,Rain,30,2013-12-28 12:15:00
6:35 AM,45.0,41.5,88,30.21,10.0,NNE,3.5,-,0.03,Rain,Rain,20,2013-12-28 12:35:00
6:55 AM,45.1,41.9,88,30.21,7.0,NNE,4.6,-,0.05,Rain,Rain,30,2013-12-28 12:55:00
7:15 AM,45.1,42.1,89,30.21,7.0,NNE,4.6,-,0.02,Rain,Rain,20,2013-12-28 13:15:00
7:35 AM,45.3,42.4,90,30.22,7.0,North,6.9,-,0.05,Rain,Light Rain,350,2013-12-28 13:35:00
7:55 AM,45.5,42.8,90,30.23,5.0,North,5.8,-,0.10,Rain,Rain,360,2013-12-28 13:55:00
8:15 AM,45.5,42.8,90,30.23,4.0,North,5.8,-,0.05,Rain,Rain,360,2013-12-28 14:15:00
8:35 AM,45.7,43.0,90,30.23,5.0,North,8.1,-,0.11,Rain,Rain,360,2013-12-28 14:35:00
8:55 AM,45.9,43.2,90,30.23,7.0,North,6.9,-,0.15,Rain,Rain,10,2013-12-28 14:55:00
9:15 AM,46.0,43.2,90,30.24,5.0,NNE,4.6,-,0.03,Rain,Rain,20,2013-12-28 15:15:00
9:35 AM,46.6,43.7,90,30.21,5.0,North,9.2,-,0.08,Rain,Rain,360,2013-12-28 15:35:00
9:55 AM,46.4,43.7,90,30.23,5.0,NNE,4.6,-,0.12,Rain,Heavy Rain,30,2013-12-28 15:55:00
10:15 AM,46.8,43.9,90,30.22,4.0,NE,8.1,-,0.04,Rain,Rain,40,2013-12-28 16:15:00
10:35 AM,47.3,44.6,90,30.20,5.0,NNE,6.9,-,0.08,Rain,Light Rain,20,2013-12-28 16:35:00
10:55 AM,47.7,45.0,90,30.18,7.0,NNE,6.9,-,0.09,Rain,Light Rain,30,2013-12-28 16:55:00
11:15 AM,47.8,45.0,90,30.16,5.0,NNE,6.9,-,0.01,,Drizzle,30,2013-12-28 17:15:00
11:35 AM,48.2,45.1,89,30.17,7.0,North,5.8,-,0.02,Rain,Rain,10,2013-12-28 17:35:00
11:55 AM,48.2,45.5,90,30.14,4.0,ENE,4.6,-,0.09,Rain,Rain,60,2013-12-28 17:55:00
12:15 PM,48.7,45.9,90,30.11,7.0,NE,6.9,-,0.02,Rain,Rain,40,2013-12-28 18:15:00
12:35 PM,49.3,46.4,90,30.10,7.0,NE,6.9,-,0.04,Rain,Light Rain,50,2013-12-28 18:35:00
12:55 PM,49.6,46.8,90,30.07,7.0,NNE,5.8,-,0.06,Rain,Light Rain,30,2013-12-28 18:55:00
1:15 PM,50.2,47.3,90,30.06,4.0,NE,4.6,-,0.01,,Drizzle,40,2013-12-28 19:15:00
1:35 PM,50.4,47.5,90,30.05,7.0,NE,6.9,-,0.02,,Drizzle,50,2013-12-28 19:35:00
1:55 PM,50.5,47.5,89,30.04,10.0,NE,5.8,-,0.02,,Drizzle,40,2013-12-28 19:55:00
2:15 PM,50.9,47.7,89,30.04,7.0,North,5.8,-,0.01,Rain,Rain,10,2013-12-28 20:15:00
2:35 PM,50.9,47.8,89,30.04,10.0,North,4.6,-,0.01,,Light Drizzle,360,2013-12-28 20:35:00
2:55 PM,50.9,47.7,89,30.03,10.0,North,8.1,-,0.01,,Unknown,360,2013-12-28 20:55:00
3:15 PM,50.9,47.7,89,30.02,10.0,NNE,5.8,-,N/A,,Unknown,20,2013-12-28 21:15:00
3:35 PM,50.9,47.7,89,30.03,10.0,North,5.8,-,N/A,Rain,Rain,350,2013-12-28 21:35:00
3:55 PM,50.9,47.8,89,30.03,7.0,North,4.6,-,N/A,,Drizzle,350,2013-12-28 21:55:00
4:15 PM,50.9,47.8,89,30.02,10.0,North,6.9,-,0.01,Rain,Rain,10,2013-12-28 22:15:00
4:35 PM,50.5,47.7,90,30.00,10.0,NNE,8.1,-,0.01,,Light Drizzle,20,2013-12-28 22:35:00
4:55 PM,50.4,47.5,90,29.98,10.0,NNE,6.9,-,0.02,Rain,Rain,20,2013-12-28 22:55:00
5:15 PM,50.2,47.3,90,29.97,10.0,NNE,5.8,-,0.01,Rain,Light Rain,20,2013-12-28 23:15:00
5:35 PM,50.4,47.5,90,30.01,10.0,WNW,4.6,-,0.01,,Unknown,300,2013-12-28 23:35:00
5:55 PM,50.4,47.5,90,30.03,10.0,NW,3.5,-,0.01,,Light Drizzle,320,2013-12-28 23:55:00
6:15 PM,50.4,47.5,90,30.03,10.0,NW,4.6,-,N/A,,Unknown,320,2013-12-29 00:15:00
6:35 PM,50.2,47.3,90,30.03,10.0,NNW,4.6,-,N/A,,Unknown,330,2013-12-29 00:35:00
6:55 PM,50.5,47.7,90,30.04,10.0,NNW,3.5,-,0.01,Rain,Light Rain,330,2013-12-29 00:55:00
7:15 PM,50.5,47.7,90,30.03,10.0,Calm,Calm,-,N/A,Rain,Rain,0,2013-12-29 01:15:00
7:35 PM,50.5,47.7,90,30.01,10.0,NE,5.8,-,N/A,,Drizzle,50,2013-12-29 01:35:00
7:55 PM,50.4,47.5,90,30.02,10.0,North,3.5,-,0.01,Rain,Light Rain,360,2013-12-29 01:55:00
8:15 PM,50.4,47.5,90,30.01,10.0,North,3.5,-,N/A,,Light Drizzle,350,2013-12-29 02:15:00
8:35 PM,50.4,47.7,90,30.03,10.0,WNW,4.6,-,N/A,Rain,Rain,290,2013-12-29 02:35:00
8:55 PM,50.4,47.7,90,30.02,10.0,NNW,4.6,-,N/A,,Light Drizzle,340,2013-12-29 02:55:00
9:15 PM,50.2,47.5,90,30.03,10.0,Calm,Calm,-,N/A,,Unknown,0,2013-12-29 03:15:00
9:35 PM,50.2,47.3,90,30.00,10.0,Calm,Calm,-,N/A,Rain,Light Rain,0,2013-12-29 03:35:00
9:55 PM,50.0,47.3,90,30.03,10.0,WNW,5.8,-,0.01,Rain,Rain,300,2013-12-29 03:55:00
10:15 PM,50.0,47.3,90,30.02,10.0,Calm,Calm,-,N/A,,Light Drizzle,0,2013-12-29 04:15:00
10:35 PM,50.0,47.3,90,30.00,10.0,Calm,Calm,-,0.01,Rain,Light Rain,0,2013-12-29 04:35:00
10:55 PM,49.8,47.1,90,29.99,7.0,Calm,Calm,-,0.01,Rain,Light Rain,0,2013-12-29 04:55:00
11:15 PM,50.0,47.3,90,30.00,10.0,Calm,Calm,-,N/A,,Unknown,0,2013-12-29 05:15:00
11:35 PM,50.0,47.3,90,30.01,10.0,West,3.5,-,0.01,,Light Drizzle,280,2013-12-29 05:35:00
11:55 PM,50.0,47.3,90,30.01,7.0,WNW,3.5,-,0.01,,Drizzle,300,2013-12-29 05:55:00